This is the latest recevied weather packets stored in our database for station/object DM1RG-6. If no packets are shown the sender has not sent any weather packets the latest 10 day(s).
| Time | Temp. | Humidity | Pressure | Rain* | Wind** | Luminosity | Snow |
|---|---|---|---|---|---|---|---|
| 1777757764 | 12.78° C | 78% | 1014.8 hPa | 0 mm | - | - | - |
| 1777757403 | 12.22° C | 72% | 1014.8 hPa | 0 mm | - | - | - |
| 1777757043 | 12.22° C | 71% | 1015.1 hPa | 0 mm | - | - | - |
| 1777753804 | 13.89° C | 74% | 1015.2 hPa | 0 mm | - | - | - |
| 1777753084 | 14.44° C | 65% | 1015.3 hPa | 0 mm | - | - | - |
| 1777752364 | 14.44° C | 67% | 1015.4 hPa | 0 mm | - | - | - |
| 1777750563 | 15.56° C | 69% | 1015.6 hPa | 0 mm | - | - | - |
| 1777750203 | 16.11° C | 62% | 1015.7 hPa | 0 mm | - | - | - |
| 1777749843 | 16.11° C | 59% | 1015.6 hPa | 0 mm | - | - | - |
| 1777749483 | 16.67° C | 57% | 1015.6 hPa | 0 mm | - | - | - |
| 1777748763 | 17.22° C | 54% | 1015.7 hPa | 0 mm | - | - | - |
| 1777746963 | 19.44° C | 49% | 1015.6 hPa | 0 mm | - | - | - |
| 1777745163 | 22.22° C | 41% | 1015.3 hPa | 0 mm | - | - | - |
| 1777742284 | 25° C | 34% | 1015.6 hPa | 0 mm | - | - | - |
| 1777739764 | 26.11° C | 31% | 1016 hPa | 0 mm | - | - | - |
| 1777739404 | 26.11° C | 30% | 1015.9 hPa | 0 mm | - | - | - |
| 1777739043 | 26.67° C | 29% | 1016 hPa | 0 mm | - | - | - |
| 1777738683 | 26.67° C | 30% | 1016.2 hPa | 0 mm | - | - | - |
| 1777737963 | 26.11° C | 30% | 1016.3 hPa | 0 mm | - | - | - |
| 1777737243 | 26.11° C | 31% | 1016.5 hPa | 0 mm | - | - | - |
| 1777736164 | 26.67° C | 29% | 1016.7 hPa | 0 mm | - | - | - |
| 1777735803 | 26.11° C | 29% | 1016.7 hPa | 0 mm | - | - | - |
| 1777735444 | 27.22° C | 28% | 1016.9 hPa | 0 mm | - | - | - |
| 1777735083 | 27.22° C | 29% | 1016.9 hPa | 0 mm | - | - | - |
| 1777734723 | 28.33° C | 28% | 1017 hPa | 0 mm | - | - | - |
* Rain latest hour (hover to see other rain measurements)
** Current wind speed in m/s (hover to see current wind gust speed)